^^
Saratoga-Weather Station Historical Data
Daily Summary for January 29, 2021 Units:  Metric    English   Both
Daily Weekly Monthly Yearly Custom
  High: Low: Average:
Temperature: 21.6 °C 14.3 °C 17.4 °C
Dew Point: 16.7 °C 13.1 °C 15 °C
Humidity: 95% 71% 86%
Wind Speed: 16.3km/h 0km/h 2.1km/h
Wind Gust: 17.7km/h - -
Wind- - West
Pressure: 1013.2 hPa 1010.5 hPa -
Precipitation: 4.1 mm    
Historical Graphs
 
 
Tabular Data for January 29, 2021
Time Temperature Dew Point Pressure Wind Wind Speed Wind Gust Humidity Rainfall Rate (Hourly) solar
00:03 18.3 °C 16.3 °C 1012.9 hPa Calm   1.6 km/h 88% 0.0 mm 0 W/m2
00:08 18.2 °C 16.4 °C 1012.9 hPa NE 1.4 km/h 1.6 km/h 89% 0.0 mm 0 W/m2
00:13 18.2 °C 16.4 °C 1013.2 hPa Calm   1.6 km/h 89% 0.0 mm 0 W/m2
00:18 18.2 °C 16.4 °C 1012.9 hPa NE 1.4 km/h 3.2 km/h 89% 0.0 mm 0 W/m2
00:23 18.2 °C 16.4 °C 1013.2 hPa Calm   1.6 km/h 89% 0.0 mm 0 W/m2
00:28 18.2 °C 16.4 °C 1013.2 hPa East 1.4 km/h 3.2 km/h 89% 0.0 mm 0 W/m2
00:33 18.2 °C 16.4 °C 1013.2 hPa East 3.2 km/h 6.4 km/h 89% 0.0 mm 0 W/m2
00:38 18.3 °C 16.3 °C 1013.2 hPa Calm   6.4 km/h 88% 0.0 mm 0 W/m2
00:43 18.3 °C 16.3 °C 1013.2 hPa Calm   3.2 km/h 88% 0.0 mm 0 W/m2
00:48 18.3 °C 16.3 °C 1012.9 hPa Calm   1.6 km/h 88% 0.0 mm 0 W/m2
00:53 18.3 °C 16.3 °C 1012.9 hPa NW 3.2 km/h 4.8 km/h 88% 0.0 mm 0 W/m2
00:58 18.3 °C 16.1 °C 1012.9 hPa WNW 3.2 km/h 12.9 km/h 87% 0.0 mm 0 W/m2
01:03 18.4 °C 16.2 °C 1012.9 hPa WNW 4.7 km/h 6.4 km/h 87% 0.0 mm 0 W/m2
01:08 18.4 °C 16 °C 1012.9 hPa WSW 4.7 km/h 12.9 km/h 86% 0.0 mm 0 W/m2
01:13 18.3 °C 15.9 °C 1012.5 hPa WNW 7.9 km/h 8 km/h 86% 0.0 mm 0 W/m2
01:18 18.3 °C 15.9 °C 1012.5 hPa SW 3.2 km/h 11.3 km/h 86% 0.0 mm 0 W/m2
01:23 18.2 °C 15.8 °C 1012.5 hPa West 1.4 km/h 4.8 km/h 86% 0.0 mm 0 W/m2
01:28 18.2 °C 15.6 °C 1012.5 hPa WNW 3.2 km/h 9.7 km/h 85% 0.0 mm 0 W/m2
01:33 18.2 °C 15.5 °C 1012.5 hPa West 1.4 km/h 6.4 km/h 84% 0.0 mm 0 W/m2
01:38 18.2 °C 15.5 °C 1012.5 hPa Calm   11.3 km/h 84% 0.0 mm 0 W/m2
01:43 18.2 °C 15.5 °C 1012.5 hPa Calm     84% 0.0 mm 0 W/m2
01:48 18.1 °C 15.2 °C 1012.5 hPa Calm   1.6 km/h 83% 0.0 mm 0 W/m2
01:53 18 °C 15.1 °C 1012.5 hPa NW 1.4 km/h 1.6 km/h 83% 0.0 mm 0 W/m2
01:58 17.9 °C 15 °C 1012.5 hPa NW 1.4 km/h 1.6 km/h 83% 0.0 mm 0 W/m2
02:03 17.8 °C 14.9 °C 1012.5 hPa WNW 3.2 km/h 3.2 km/h 83% 0.0 mm 0 W/m2
02:08 17.7 °C 14.6 °C 1012.5 hPa West 1.4 km/h 4.8 km/h 82% 0.0 mm 0 W/m2
02:13 17.7 °C 14.6 °C 1012.5 hPa West 1.4 km/h 3.2 km/h 82% 0.0 mm 0 W/m2
02:18 17.6 °C 14.5 °C 1012.5 hPa West 3.2 km/h 4.8 km/h 82% 0.0 mm 0 W/m2
02:23 17.6 °C 14.3 °C 1012.5 hPa Calm   4.8 km/h 81% 0.0 mm 0 W/m2
02:28 17.5 °C 14 °C 1012.9 hPa WNW 3.2 km/h 11.3 km/h 80% 0.0 mm 0 W/m2
02:33 17.5 °C 13.8 °C 1012.9 hPa West 1.4 km/h 6.4 km/h 79% 0.0 mm 0 W/m2
02:38 17.5 °C 13.8 °C 1012.9 hPa West 6.4 km/h 6.4 km/h 79% 0.0 mm 0 W/m2
02:43 17.4 °C 13.9 °C 1012.9 hPa West 1.4 km/h 6.4 km/h 80% 0.0 mm 0 W/m2
02:48 17.3 °C 14 °C 1012.9 hPa West 1.4 km/h 4.8 km/h 81% 0.0 mm 0 W/m2
02:53 17.2 °C 13.9 °C 1012.5 hPa West 3.2 km/h 4.8 km/h 81% 0.0 mm 0 W/m2
02:58 17.1 °C 13.8 °C 1012.5 hPa West 1.4 km/h 4.8 km/h 81% 0.0 mm 0 W/m2
03:03 16.9 °C 13.6 °C 1012.5 hPa Calm   4.8 km/h 81% 0.0 mm 0 W/m2
03:08 16.9 °C 13.6 °C 1012.5 hPa WNW 3.2 km/h 8 km/h 81% 0.0 mm 0 W/m2
03:13 16.8 °C 13.5 °C 1012.5 hPa WNW 1.4 km/h 4.8 km/h 81% 0.0 mm 0 W/m2
03:18 16.8 °C 13.7 °C 1012.2 hPa WNW 1.4 km/h 8 km/h 82% 0.0 mm 0 W/m2
03:23 16.7 °C 13.6 °C 1012.2 hPa WNW 1.4 km/h 3.2 km/h 82% 0.0 mm 0 W/m2
03:28 16.6 °C 13.5 °C 1012.2 hPa Calm     82% 0.0 mm 0 W/m2
03:33 16.6 °C 13.7 °C 1012.2 hPa Calm     83% 0.0 mm 0 W/m2
03:38 16.4 °C 13.5 °C 1012.5 hPa Calm   3.2 km/h 83% 0.0 mm 0 W/m2
03:43 16.3 °C 13.6 °C 1012.5 hPa Calm   1.6 km/h 84% 0.0 mm 0 W/m2
03:48 16.1 °C 13.6 °C 1012.5 hPa Calm     85% 0.0 mm 0 W/m2
03:53 16 °C 13.5 °C 1012.5 hPa Calm   1.6 km/h 85% 0.0 mm 0 W/m2
03:58 15.9 °C 13.6 °C 1012.2 hPa Calm     86% 0.0 mm 0 W/m2
04:03 15.8 °C 13.5 °C 1012.2 hPa Calm     86% 0.0 mm 0 W/m2
04:08 15.7 °C 13.5 °C 1012.2 hPa West 1.4 km/h 3.2 km/h 87% 0.0 mm 0 W/m2
04:13 15.6 °C 13.4 °C 1012.2 hPa West 1.4 km/h 1.6 km/h 87% 0.0 mm 0 W/m2
04:18 15.5 °C 13.5 °C 1012.2 hPa Calm     88% 0.0 mm 0 W/m2
04:23 15.4 °C 13.4 °C 1011.9 hPa Calm   1.6 km/h 88% 0.0 mm 0 W/m2
04:28 15.4 °C 13.4 °C 1012.2 hPa Calm     88% 0.0 mm 0 W/m2
04:33 15.4 °C 13.4 °C 1012.2 hPa Calm     88% 0.0 mm 0 W/m2
04:38 15.3 °C 13.3 °C 1012.2 hPa West 1.4 km/h 3.2 km/h 88% 0.0 mm 0 W/m2
04:43 15.2 °C 13.4 °C 1012.2 hPa Calm     89% 0.0 mm 0 W/m2
04:48 15.2 °C 13.2 °C 1012.2 hPa Calm   1.6 km/h 88% 0.0 mm 0 W/m2
04:54 15.1 °C 13.3 °C 1012.2 hPa Calm     89% 0.0 mm 0 W/m2
04:59 14.9 °C 13.1 °C 1012.2 hPa West 1.4 km/h 1.6 km/h 89% 0.0 mm 0 W/m2
05:04 14.9 °C 13.3 °C 1012.2 hPa West 3.2 km/h 6.4 km/h 90% 0.0 mm 0 W/m2
05:09 14.9 °C 13.3 °C 1012.2 hPa Calm   1.6 km/h 90% 0.0 mm 0 W/m2
05:14 14.9 °C 13.3 °C 1012.2 hPa Calm   6.4 km/h 90% 0.0 mm 0 W/m2
05:19 14.9 °C 13.3 °C 1012.2 hPa West 1.4 km/h 3.2 km/h 90% 0.0 mm 0 W/m2
05:24 14.9 °C 13.3 °C 1011.9 hPa West 4.7 km/h 6.4 km/h 90% 0.0 mm 0 W/m2
05:29 15 °C 13.4 °C 1011.9 hPa Calm   4.8 km/h 90% 0.0 mm 0 W/m2
05:34 15 °C 13.4 °C 1011.9 hPa Calm   6.4 km/h 90% 0.0 mm 0 W/m2
05:39 15 °C 13.4 °C 1012.2 hPa Calm     90% 0.0 mm 0 W/m2
05:44 15 °C 13.4 °C 1012.2 hPa West 3.2 km/h 3.2 km/h 90% 0.0 mm 0 W/m2
05:49 15.1 °C 13.5 °C 1012.2 hPa NW 1.4 km/h 1.6 km/h 90% 0.0 mm 0 W/m2
05:54 15.1 °C 13.5 °C 1012.2 hPa ESE 1.4 km/h 3.2 km/h 90% 0.0 mm 0 W/m2
05:59 15.1 °C 13.5 °C 1012.5 hPa Calm   4.8 km/h 90% 0.0 mm 5 W/m2
06:04 15.1 °C 13.5 °C 1012.5 hPa Calm   4.8 km/h 90% 0.0 mm 5 W/m2
06:09 15.1 °C 13.5 °C 1012.2 hPa ESE 1.4 km/h 1.6 km/h 90% 0.0 mm 12 W/m2
06:14 15.1 °C 13.5 °C 1012.2 hPa SW 1.4 km/h 4.8 km/h 90% 0.0 mm 16 W/m2
06:19 15.1 °C 13.5 °C 1012.2 hPa SW 1.4 km/h 3.2 km/h 90% 0.0 mm 16 W/m2
06:24 15.2 °C 13.6 °C 1012.2 hPa WNW 3.2 km/h 3.2 km/h 90% 0.0 mm 21 W/m2
06:29 15.2 °C 13.4 °C 1012.2 hPa Calm   3.2 km/h 89% 0.0 mm 28 W/m2
06:34 15.3 °C 13.5 °C 1012.2 hPa Calm   1.6 km/h 89% 0.0 mm 23 W/m2
06:39 15.4 °C 13.6 °C 1012.2 hPa West 3.2 km/h 3.2 km/h 89% 0.0 mm 25 W/m2
06:44 15.4 °C 13.6 °C 1012.2 hPa NW 3.2 km/h 4.8 km/h 89% 0.0 mm 28 W/m2
06:49 15.6 °C 13.6 °C 1012.2 hPa NNW 3.2 km/h 4.8 km/h 88% 0.0 mm 30 W/m2
06:54 15.6 °C 13.6 °C 1012.2 hPa North 1.4 km/h 1.6 km/h 88% 0.0 mm 28 W/m2
06:59 15.7 °C 13.7 °C 1012.2 hPa North 1.4 km/h 3.2 km/h 88% 0.0 mm 25 W/m2
07:04 15.7 °C 13.7 °C 1011.9 hPa Calm     88% 0.0 mm 25 W/m2
07:09 15.7 °C 13.7 °C 1011.9 hPa Calm   1.6 km/h 88% 0.0 mm 19 W/m2
07:14 15.7 °C 13.7 °C 1011.9 hPa NNE 1.4 km/h 3.2 km/h 88% 0.0 mm 26 W/m2
07:19 15.7 °C 13.7 °C 1011.9 hPa WNW 3.2 km/h 4.8 km/h 88% 0.0 mm 51 W/m2
07:24 15.8 °C 13.8 °C 1011.9 hPa WNW 1.4 km/h 4.8 km/h 88% 0.0 mm 54 W/m2
07:29 15.8 °C 13.6 °C 1011.9 hPa Calm     87% 0.0 mm 53 W/m2
07:34 15.8 °C 13.6 °C 1011.9 hPa Calm   4.8 km/h 87% 0.0 mm 53 W/m2
07:39 15.8 °C 13.6 °C 1011.9 hPa West 1.4 km/h 3.2 km/h 87% 0.0 mm 51 W/m2
07:44 15.8 °C 13.8 °C 1011.9 hPa Calm     88% 0.0 mm 58 W/m2
07:49 15.8 °C 13.8 °C 1011.9 hPa NE 1.4 km/h 4.8 km/h 88% 0.0 mm 76 W/m2
07:54 15.8 °C 13.8 °C 1011.9 hPa Calm   3.2 km/h 88% 0.0 mm 86 W/m2
07:59 15.9 °C 13.9 °C 1011.9 hPa Calm   4.8 km/h 88% 0.0 mm 229 W/m2
08:04 16.2 °C 14.2 °C 1011.9 hPa WNW 6.4 km/h 6.4 km/h 88% 0.0 mm 323 W/m2
08:09 16.6 °C 14.4 °C 1011.9 hPa West 3.2 km/h 9.7 km/h 87% 0.0 mm 360 W/m2
08:14 17 °C 14.6 °C 1011.9 hPa WNW 4.7 km/h 9.7 km/h 86% 0.0 mm 220 W/m2
08:19 17.2 °C 14.7 °C 1011.9 hPa Calm   4.8 km/h 85% 0.0 mm 146 W/m2
08:24 17.4 °C 14.7 °C 1011.9 hPa Calm   6.4 km/h 84% 0.0 mm 141 W/m2
08:29 17.5 °C 14.6 °C 1011.9 hPa Calm   4.8 km/h 83% 0.0 mm 125 W/m2
08:34 17.7 °C 14.8 °C 1011.9 hPa WSW 3.2 km/h 4.8 km/h 83% 0.0 mm 79 W/m2
08:39 17.8 °C 14.9 °C 1011.5 hPa West 3.2 km/h 3.2 km/h 83% 0.0 mm 84 W/m2
08:44 17.9 °C 14.8 °C 1011.5 hPa West 3.2 km/h 6.4 km/h 82% 0.0 mm 111 W/m2
08:49 18.1 °C 15 °C 1011.5 hPa West 3.2 km/h 3.2 km/h 82% 0.0 mm 141 W/m2
08:54 18.3 °C 15 °C 1011.5 hPa WSW 11.1 km/h 11.3 km/h 81% 0.0 mm 146 W/m2
08:59 18.4 °C 15.1 °C 1011.5 hPa SW 3.2 km/h 4.8 km/h 81% 0.0 mm 169 W/m2
09:04 18.4 °C 15.1 °C 1011.5 hPa Calm   4.8 km/h 81% 0.0 mm 200 W/m2
09:09 18.5 °C 15 °C 1011.5 hPa Calm   4.8 km/h 80% 0.0 mm 220 W/m2
09:14 18.7 °C 15.2 °C 1011.2 hPa ESE 1.4 km/h 3.2 km/h 80% 0.0 mm 234 W/m2
09:19 18.8 °C 15.1 °C 1011.2 hPa West 4.7 km/h 6.4 km/h 79% 0.0 mm 234 W/m2
09:24 18.8 °C 15.1 °C 1011.2 hPa West 3.2 km/h 3.2 km/h 79% 0.0 mm 531 W/m2
09:29 18.9 °C 15.4 °C 1011.2 hPa WSW 1.4 km/h 4.8 km/h 80% 0.0 mm 424 W/m2
09:34 19.2 °C 15.3 °C 1011.2 hPa Calm   4.8 km/h 78% 0.0 mm 476 W/m2
09:40 19.4 °C 15.7 °C 1011.2 hPa NW 1.4 km/h 6.4 km/h 79% 0.0 mm 573 W/m2
09:45 19.6 °C 15.7 °C 1011.2 hPa West 3.2 km/h 6.4 km/h 78% 0.0 mm 575 W/m2
09:50 19.9 °C 15.9 °C 1010.8 hPa NNE 3.2 km/h 3.2 km/h 78% 0.0 mm 596 W/m2
09:55 20.4 °C 15.8 °C 1010.8 hPa Calm   4.8 km/h 75% 0.0 mm 647 W/m2
10:00 20.7 °C 15.9 °C 1010.8 hPa NNE 1.4 km/h 6.4 km/h 74% 0.0 mm 336 W/m2
10:05 20.8 °C 16 °C 1010.8 hPa ESE 3.2 km/h 4.8 km/h 74% 0.0 mm 274 W/m2
10:10 20.9 °C 16.1 °C 1010.8 hPa SW 4.7 km/h 6.4 km/h 74% 0.0 mm 554 W/m2
10:15 20.9 °C 16.1 °C 1010.8 hPa West 1.4 km/h 4.8 km/h 74% 0.0 mm 345 W/m2
10:20 20.8 °C 16 °C 1010.8 hPa NW 4.7 km/h 6.4 km/h 74% 0.0 mm 439 W/m2
10:25 20.8 °C 16 °C 1010.8 hPa WNW 3.2 km/h 8 km/h 74% 0.0 mm 464 W/m2
10:30 20.9 °C 16.1 °C 1010.8 hPa NW 1.4 km/h 4.8 km/h 74% 0.0 mm 376 W/m2
10:35 21.1 °C 16.1 °C 1010.8 hPa Calm   8 km/h 73% 0.0 mm 302 W/m2
10:40 21.1 °C 16.1 °C 1010.8 hPa WNW 4.7 km/h 9.7 km/h 73% 0.0 mm 432 W/m2
10:45 21.1 °C 16.1 °C 1010.8 hPa SSW 4.7 km/h 4.8 km/h 73% 0.0 mm 374 W/m2
10:50 21.1 °C 16.1 °C 1010.8 hPa NW 1.4 km/h 8 km/h 73% 0.0 mm 334 W/m2
10:55 21.2 °C 16.2 °C 1010.5 hPa WSW 3.2 km/h 4.8 km/h 73% 0.0 mm 330 W/m2
11:00 21.2 °C 16.2 °C 1010.5 hPa Calm   8 km/h 73% 0.0 mm 454 W/m2
11:05 21.4 °C 16.1 °C 1010.5 hPa WNW 1.4 km/h 3.2 km/h 72% 0.0 mm 483 W/m2
11:10 21.6 °C 16.3 °C 1010.5 hPa Calm   4.8 km/h 72% 0.0 mm 446 W/m2
11:15 21.6 °C 16.1 °C 1010.5 hPa WNW 4.7 km/h 8 km/h 71% 0.0 mm 394 W/m2
11:20 21.6 °C 16.3 °C 1010.5 hPa NW 3.2 km/h 9.7 km/h 72% 0.0 mm 359 W/m2
11:25 21.4 °C 15.9 °C 1010.8 hPa West 4.7 km/h 12.9 km/h 71% 0.0 mm 327 W/m2
11:30 21.3 °C 16 °C 1010.8 hPa WNW 11.1 km/h 11.3 km/h 72% 0.0 mm 323 W/m2
11:35 21.2 °C 15.7 °C 1010.8 hPa West 11.1 km/h 12.9 km/h 71% 0.0 mm 408 W/m2
11:40 21.1 °C 15.9 °C 1010.5 hPa WNW 6.4 km/h 8 km/h 72% 0.0 mm 373 W/m2
11:45 21.1 °C 16.1 °C 1010.5 hPa WNW 4.7 km/h 11.3 km/h 73% 0.0 mm 392 W/m2
11:50 21.1 °C 15.6 °C 1010.5 hPa WNW 1.4 km/h 4.8 km/h 71% 0.0 mm 362 W/m2
11:55 21.1 °C 16.1 °C 1010.5 hPa NW 6.4 km/h 14.5 km/h 73% 0.0 mm 366 W/m2
12:00 20.9 °C 15.9 °C 1010.5 hPa West 6.4 km/h 12.9 km/h 73% 0.0 mm 381 W/m2
12:05 20.8 °C 15.6 °C 1010.5 hPa WNW 4.7 km/h 14.5 km/h 72% 0.0 mm 373 W/m2
12:10 20.9 °C 15.9 °C 1010.5 hPa West 4.7 km/h 9.7 km/h 73% 0.0 mm 390 W/m2
12:15 20.9 °C 15.7 °C 1010.8 hPa West 4.7 km/h 14.5 km/h 72% 0.0 mm 274 W/m2
12:20 20.7 °C 15.5 °C 1010.8 hPa WSW 3.2 km/h 11.3 km/h 72% 0.0 mm 169 W/m2
12:25 20.6 °C 15.8 °C 1010.8 hPa West 4.7 km/h 9.7 km/h 74% 0.0 mm 121 W/m2
12:30 20.4 °C 15.8 °C 1010.8 hPa West 3.2 km/h 9.7 km/h 75% 0.0 mm 83 W/m2
12:35 20.3 °C 15.9 °C 1010.8 hPa WSW 4.7 km/h 9.7 km/h 76% 0.0 mm 63 W/m2
12:40 20.2 °C 15.8 °C 1010.8 hPa WNW 16.3 km/h 16.1 km/h 76% 0.0 mm 62 W/m2
12:45 20 °C 15.8 °C 1010.8 hPa West 4.7 km/h 8 km/h 77% 0.0 mm 56 W/m2
12:50 19.8 °C 15.9 °C 1011.2 hPa NW 4.7 km/h 6.4 km/h 78% 0.0 mm 40 W/m2
12:55 19.7 °C 15.8 °C 1011.2 hPa West 9.7 km/h 16.1 km/h 78% 0.0 mm 42 W/m2
13:00 19.6 °C 15.7 °C 1011.2 hPa WNW 4.7 km/h 8 km/h 78% 0.0 mm 47 W/m2
13:05 19.5 °C 15.6 °C 1011.2 hPa NW 3.2 km/h 16.1 km/h 78% 0.0 mm 42 W/m2
13:10 19.4 °C 15.7 °C 1011.2 hPa WNW 4.7 km/h 12.9 km/h 79% 0.0 mm 46 W/m2
13:15 19.2 °C 15.7 °C 1011.2 hPa West 4.7 km/h 17.7 km/h 80% 0.0 mm 35 W/m2
13:20 19.2 °C 16.1 °C 1011.2 hPa West 11.1 km/h 14.5 km/h 82% 0.0 mm 42 W/m2
13:25 18.7 °C 15.8 °C 1011.2 hPa West 4.7 km/h 11.3 km/h 83% 0.2 mm 46 W/m2
13:30 18.4 °C 15.8 °C 1011.2 hPa West 6.4 km/h 16.1 km/h 85% 0.2 mm 33 W/m2
13:35 18.1 °C 15.9 °C 1011.2 hPa West 4.7 km/h 11.3 km/h 87% 0.2 mm 21 W/m2
13:40 17.9 °C 15.9 °C 1011.2 hPa WNW 4.7 km/h 14.5 km/h 88% 0.5 mm 23 W/m2
13:45 17.7 °C 15.7 °C 1011.5 hPa West 4.7 km/h 12.9 km/h 88% 0.5 mm 25 W/m2
13:50 17.6 °C 15.8 °C 1011.9 hPa West 4.7 km/h 11.3 km/h 89% 0.5 mm 21 W/m2
13:55 17.5 °C 15.7 °C 1011.9 hPa West 1.4 km/h 4.8 km/h 89% 0.5 mm 19 W/m2
14:00 17.4 °C 15.6 °C 1012.2 hPa NW 3.2 km/h 9.7 km/h 89% 0.5 mm 19 W/m2
14:05 17.3 °C 15.5 °C 1012.2 hPa WSW 3.2 km/h 4.8 km/h 89% 0.5 mm 19 W/m2
14:10 17.2 °C 15.4 °C 1011.9 hPa West 1.4 km/h 4.8 km/h 89% 0.5 mm 21 W/m2
14:15 17.2 °C 15.5 °C 1011.9 hPa WNW 4.7 km/h 4.8 km/h 90% 0.8 mm 23 W/m2
14:20 17.2 °C 15.7 °C 1011.9 hPa NW 1.4 km/h 6.4 km/h 91% 1.0 mm 26 W/m2
14:25 17.1 °C 15.6 °C 1011.9 hPa WNW 1.4 km/h 3.2 km/h 91% 1.0 mm 30 W/m2
14:30 17.1 °C 15.6 °C 1011.9 hPa Calm   1.6 km/h 91% 1.5 mm 37 W/m2
14:35 17.1 °C 15.8 °C 1011.9 hPa Calm     92% 2.3 mm 47 W/m2
14:40 17 °C 15.7 °C 1011.9 hPa Calm     92% 2.3 mm 62 W/m2
14:45 17 °C 15.7 °C 1011.9 hPa Calm   1.6 km/h 92% 2.5 mm 81 W/m2
14:50 16.9 °C 15.6 °C 1011.5 hPa Calm   1.6 km/h 92% 2.5 mm 97 W/m2
14:55 17 °C 15.9 °C 1011.2 hPa Calm   3.2 km/h 93% 2.5 mm 116 W/m2
15:00 17 °C 15.9 °C 1010.8 hPa Calm   3.2 km/h 93% 2.5 mm 120 W/m2
15:05 17.1 °C 16 °C 1010.8 hPa Calm   3.2 km/h 93% 2.5 mm 120 W/m2
15:10 17 °C 15.9 °C 1011.5 hPa WNW 1.4 km/h 3.2 km/h 93% 2.5 mm 148 W/m2
15:15 17 °C 15.9 °C 1011.9 hPa Calm   1.6 km/h 93% 2.3 mm 163 W/m2
15:20 17 °C 15.7 °C 1011.5 hPa NW 1.4 km/h 3.2 km/h 92% 2.3 mm 206 W/m2
15:25 17 °C 15.5 °C 1011.2 hPa NW 1.4 km/h 3.2 km/h 91% 1.8 mm 213 W/m2
15:30 17.1 °C 15.6 °C 1011.5 hPa Calm   1.6 km/h 91% 1.5 mm 213 W/m2
15:35 17.2 °C 15.7 °C 1011.5 hPa Calm     91% 0.8 mm 214 W/m2
15:40 17.3 °C 15.8 °C 1011.5 hPa WNW 1.4 km/h 3.2 km/h 91% 0.5 mm 197 W/m2
15:45 17.4 °C 15.7 °C 1011.5 hPa Calm   3.2 km/h 90% 0.2 mm 176 W/m2
15:50 17.6 °C 15.9 °C 1011.5 hPa Calm   1.6 km/h 90% 0.2 mm 176 W/m2
15:55 17.8 °C 16.3 °C 1011.5 hPa NE 1.4 km/h 1.6 km/h 91% 0.2 mm 211 W/m2
16:01 17.8 °C 16.1 °C 1011.2 hPa NW 3.2 km/h 4.8 km/h 90% 0.2 mm 244 W/m2
16:06 17.8 °C 16 °C 1011.2 hPa Calm   3.2 km/h 89% 0.2 mm 193 W/m2
16:11 17.8 °C 15.8 °C 1010.8 hPa Calm   1.6 km/h 88% 0.2 mm 225 W/m2
16:16 17.9 °C 15.9 °C 1010.8 hPa WNW 1.4 km/h 4.8 km/h 88% 0.2 mm 156 W/m2
16:21 17.9 °C 15.9 °C 1011.2 hPa WNW 1.4 km/h 4.8 km/h 88% 0.0 mm 104 W/m2
16:26 17.9 °C 16.1 °C 1011.2 hPa WNW 3.2 km/h 9.7 km/h 89% 0.0 mm 121 W/m2
16:31 17.8 °C 16 °C 1011.2 hPa West 3.2 km/h 6.4 km/h 89% 0.0 mm 105 W/m2
16:36 17.7 °C 15.9 °C 1011.2 hPa WNW 7.9 km/h 12.9 km/h 89% 0.0 mm 91 W/m2
16:41 17.6 °C 15.9 °C 1011.2 hPa SSW 3.2 km/h 6.4 km/h 90% 0.0 mm 65 W/m2
16:46 17.6 °C 15.9 °C 1011.2 hPa WSW 3.2 km/h 4.8 km/h 90% 0.0 mm 74 W/m2
16:51 17.4 °C 15.7 °C 1011.2 hPa Calm   3.2 km/h 90% 0.0 mm 79 W/m2
16:56 17.4 °C 15.9 °C 1011.5 hPa WNW 4.7 km/h 4.8 km/h 91% 0.0 mm 88 W/m2
17:01 17.3 °C 15.6 °C 1011.2 hPa Calm   3.2 km/h 90% 0.0 mm 107 W/m2
17:06 17.4 °C 15.9 °C 1011.5 hPa Calm     91% 0.0 mm 144 W/m2
17:11 17.5 °C 16 °C 1011.5 hPa Calm     91% 0.0 mm 153 W/m2
17:16 17.6 °C 16.3 °C 1011.5 hPa Calm     92% 0.0 mm 151 W/m2
17:21 17.7 °C 16.2 °C 1011.5 hPa ENE 3.2 km/h 3.2 km/h 91% 0.0 mm 169 W/m2
17:26 17.8 °C 16.5 °C 1011.2 hPa ESE 1.4 km/h 1.6 km/h 92% 0.0 mm 229 W/m2
17:31 17.8 °C 16.3 °C 1011.2 hPa Calm   3.2 km/h 91% 0.0 mm 186 W/m2
17:36 18 °C 16.7 °C 1011.5 hPa Calm     92% 0.0 mm 107 W/m2
17:41 18.1 °C 16.6 °C 1011.5 hPa Calm   3.2 km/h 91% 0.0 mm 70 W/m2
17:46 18.1 °C 16.4 °C 1011.5 hPa WSW 1.4 km/h 3.2 km/h 90% 0.0 mm 77 W/m2
17:51 18 °C 16.2 °C 1011.5 hPa West 3.2 km/h 9.7 km/h 89% 0.5 mm 120 W/m2
17:56 17.8 °C 16.1 °C 1011.5 hPa Calm   3.2 km/h 90% 0.5 mm 178 W/m2
18:01 17.7 °C 15.9 °C 1011.5 hPa WSW 1.4 km/h 8 km/h 89% 0.5 mm 330 W/m2
18:06 17.8 °C 16.1 °C 1011.5 hPa WNW 3.2 km/h 4.8 km/h 90% 0.5 mm 364 W/m2
18:11 17.8 °C 16.1 °C 1011.5 hPa Calm   4.8 km/h 90% 0.5 mm 176 W/m2
18:16 17.9 °C 16.2 °C 1011.5 hPa West 3.2 km/h 4.8 km/h 90% 0.5 mm 128 W/m2
18:21 17.9 °C 16.2 °C 1011.5 hPa Calm     90% 0.5 mm 81 W/m2
18:26 17.9 °C 16.2 °C 1011.5 hPa Calm   4.8 km/h 90% 0.5 mm 23 W/m2
18:31 17.8 °C 16 °C 1011.5 hPa NNW 6.4 km/h 8 km/h 89% 0.8 mm 62 W/m2
18:36 17.6 °C 15.6 °C 1011.5 hPa WNW 4.7 km/h 9.7 km/h 88% 0.8 mm 97 W/m2
18:41 17.4 °C 15.2 °C 1011.2 hPa WNW 3.2 km/h 11.3 km/h 87% 0.8 mm 134 W/m2
18:46 17.3 °C 15.5 °C 1011.5 hPa West 4.7 km/h 6.4 km/h 89% 0.8 mm 167 W/m2
18:51 17.3 °C 15.6 °C 1011.5 hPa WNW 6.4 km/h 8 km/h 90% 0.2 mm 172 W/m2
18:56 17.3 °C 15.5 °C 1011.5 hPa NW 7.9 km/h 11.3 km/h 89% 0.2 mm 158 W/m2
19:01 17.3 °C 15.5 °C 1011.5 hPa NW 3.2 km/h 6.4 km/h 89% 0.2 mm 160 W/m2
19:06 17.3 °C 15.3 °C 1011.5 hPa NNW 4.7 km/h 4.8 km/h 88% 0.2 mm 185 W/m2
19:11 17.3 °C 15.5 °C 1011.5 hPa WNW 6.4 km/h 8 km/h 89% 0.2 mm 306 W/m2
19:16 17.5 °C 15.5 °C 1011.2 hPa WNW 4.7 km/h 9.7 km/h 88% 0.2 mm 281 W/m2
19:21 17.7 °C 15.9 °C 1011.2 hPa WSW 4.7 km/h 4.8 km/h 89% 0.2 mm 127 W/m2
19:26 17.7 °C 15.7 °C 1011.2 hPa West 1.4 km/h 8 km/h 88% 0.2 mm 160 W/m2
19:31 17.6 °C 15.6 °C 1011.2 hPa WNW 1.4 km/h 4.8 km/h 88% 0.0 mm 105 W/m2
19:36 17.6 °C 15.6 °C 1011.2 hPa Calm     88% 0.0 mm 83 W/m2
19:41 17.4 °C 15.4 °C 1011.2 hPa Calm   3.2 km/h 88% 0.0 mm 104 W/m2
19:46 17.6 °C 15.9 °C 1011.2 hPa Calm   1.6 km/h 90% 0.0 mm 174 W/m2
19:51 17.7 °C 15.7 °C 1011.2 hPa Calm   3.2 km/h 88% 0.0 mm 125 W/m2
19:56 17.8 °C 15.6 °C 1011.2 hPa Calm     87% 0.0 mm 109 W/m2
20:01 17.9 °C 15.9 °C 1011.2 hPa Calm     88% 0.0 mm 165 W/m2
20:06 18.1 °C 15.9 °C 1011.2 hPa WNW 1.4 km/h 3.2 km/h 87% 0.0 mm 174 W/m2
20:11 18.3 °C 15.9 °C 1011.2 hPa West 1.4 km/h 3.2 km/h 86% 0.0 mm 162 W/m2
20:16 18.3 °C 15.7 °C 1011.2 hPa WNW 3.2 km/h 4.8 km/h 85% 0.0 mm 137 W/m2
20:21 18.3 °C 15.7 °C 1011.2 hPa West 1.4 km/h 3.2 km/h 85% 0.0 mm 141 W/m2
20:26 18.5 °C 15.9 °C 1011.2 hPa Calm     85% 0.0 mm 102 W/m2
20:31 18.7 °C 16.3 °C 1011.2 hPa West 3.2 km/h 3.2 km/h 86% 0.0 mm 60 W/m2
20:36 18.6 °C 16 °C 1011.2 hPa Calm     85% 0.0 mm 32 W/m2
20:41 18.4 °C 16 °C 1011.2 hPa Calm     86% 0.0 mm 25 W/m2
20:46 18.2 °C 15.8 °C 1011.2 hPa Calm     86% 0.0 mm 19 W/m2
20:51 17.8 °C 15.4 °C 1010.8 hPa Calm     86% 0.0 mm 16 W/m2
20:56 17.5 °C 15.3 °C 1010.8 hPa Calm     87% 0.0 mm 14 W/m2
21:01 17.2 °C 15.2 °C 1010.8 hPa Calm     88% 0.0 mm 12 W/m2
21:06 16.9 °C 14.9 °C 1010.8 hPa Calm     88% 0.0 mm 11 W/m2
21:11 16.6 °C 14.6 °C 1010.8 hPa Calm     88% 0.0 mm 9 W/m2
21:16 16.2 °C 14.4 °C 1010.8 hPa Calm     89% 0.0 mm 7 W/m2
21:21 16 °C 14.4 °C 1010.8 hPa Calm     90% 0.0 mm 7 W/m2
21:26 15.8 °C 14.3 °C 1011.2 hPa Calm     91% 0.0 mm 5 W/m2
21:31 15.6 °C 14.1 °C 1010.8 hPa Calm     91% 0.0 mm 5 W/m2
21:36 15.4 °C 14.1 °C 1011.2 hPa Calm     92% 0.0 mm 0 W/m2
21:41 15.2 °C 13.9 °C 1011.2 hPa Calm     92% 0.0 mm 0 W/m2
21:46 15.2 °C 14.1 °C 1011.2 hPa Calm     93% 0.0 mm 0 W/m2
21:51 15.1 °C 14 °C 1010.8 hPa Calm     93% 0.0 mm 0 W/m2
21:56 14.9 °C 13.8 °C 1011.2 hPa Calm     93% 0.0 mm 0 W/m2
22:01 14.8 °C 13.7 °C 1011.2 hPa Calm     93% 0.0 mm 0 W/m2
22:06 14.7 °C 13.6 °C 1011.5 hPa Calm     93% 0.0 mm 0 W/m2
22:11 14.6 °C 13.5 °C 1011.5 hPa Calm     93% 0.0 mm 0 W/m2
22:16 14.6 °C 13.6 °C 1011.5 hPa West 1.4 km/h 3.2 km/h 94% 0.0 mm 0 W/m2
22:21 14.5 °C 13.5 °C 1011.5 hPa Calm   1.6 km/h 94% 0.0 mm 0 W/m2
22:26 14.5 °C 13.5 °C 1011.5 hPa West 3.2 km/h 3.2 km/h 94% 0.0 mm 0 W/m2
22:31 14.4 °C 13.4 °C 1011.5 hPa Calm     94% 0.0 mm 0 W/m2
22:36 14.4 °C 13.4 °C 1011.5 hPa West 3.2 km/h 3.2 km/h 94% 0.0 mm 0 W/m2
22:41 14.4 °C 13.6 °C 1011.5 hPa West 1.4 km/h 1.6 km/h 95% 0.0 mm 0 W/m2
22:46 14.4 °C 13.6 °C 1011.5 hPa Calm   1.6 km/h 95% 0.0 mm 0 W/m2
22:51 14.4 °C 13.6 °C 1011.5 hPa Calm     95% 0.0 mm 0 W/m2
22:56 14.5 °C 13.7 °C 1011.5 hPa Calm   1.6 km/h 95% 0.0 mm 0 W/m2
23:01 14.4 °C 13.6 °C 1011.5 hPa Calm   1.6 km/h 95% 0.0 mm 0 W/m2
23:06 14.5 °C 13.7 °C 1011.5 hPa Calm   3.2 km/h 95% 0.0 mm 0 W/m2
23:11 14.5 °C 13.7 °C 1011.9 hPa WSW 4.7 km/h 4.8 km/h 95% 0.0 mm 0 W/m2
23:16 14.5 °C 13.7 °C 1011.9 hPa West 3.2 km/h 3.2 km/h 95% 0.0 mm 0 W/m2
23:21 14.6 °C 13.8 °C 1011.9 hPa WNW 1.4 km/h 3.2 km/h 95% 0.0 mm 0 W/m2
23:26 14.6 °C 13.8 °C 1011.9 hPa West 3.2 km/h 4.8 km/h 95% 0.0 mm 0 W/m2
23:31 14.6 °C 13.8 °C 1011.9 hPa WSW 3.2 km/h 4.8 km/h 95% 0.0 mm 0 W/m2
23:36 14.6 °C 13.8 °C 1011.9 hPa WSW 7.9 km/h 9.7 km/h 95% 0.0 mm 0 W/m2
23:41 14.6 °C 13.8 °C 1011.9 hPa WNW 4.7 km/h 6.4 km/h 95% 0.0 mm 0 W/m2
23:46 14.6 °C 13.6 °C 1011.9 hPa West 3.2 km/h 4.8 km/h 94% 0.0 mm 0 W/m2
23:51 14.4 °C 13.4 °C 1011.5 hPa West 3.2 km/h 4.8 km/h 94% 0.0 mm 0 W/m2
23:56 14.3 °C 13.2 °C 1011.5 hPa WSW 3.2 km/h 6.4 km/h 93% 0.0 mm 0 W/m2
Juneau County Weather
Compliments of Weather Underground - 4 mb